Year,Month,Day,Hour,Minute,Value (Times are PST for temperature in C)
2016,04,20,00,00,13.50
2016,04,20,00,01,13.50
2016,04,20,00,02,13.50
2016,04,20,00,03,13.60
2016,04,20,00,04,13.60
2016,04,20,00,05,13.60
2016,04,20,00,06,13.70
2016,04,20,00,07,13.70
2016,04,20,00,08,13.70
2016,04,20,00,09,13.70
2016,04,20,00,10,13.70
2016,04,20,00,11,13.70
2016,04,20,00,12,13.70
2016,04,20,00,13,13.70
2016,04,20,00,14,13.70
2016,04,20,00,15,13.70
2016,04,20,00,16,13.70
2016,04,20,00,17,13.70
2016,04,20,00,18,13.70
2016,04,20,00,19,13.70
2016,04,20,00,20,13.70
2016,04,20,00,21,13.70
2016,04,20,00,22,13.70
2016,04,20,00,23,13.70
2016,04,20,00,24,13.70
2016,04,20,00,25,13.70
2016,04,20,00,26,13.70
2016,04,20,00,27,13.70
2016,04,20,00,28,13.70
2016,04,20,00,29,13.70
2016,04,20,00,30,13.70
2016,04,20,00,31,13.70
2016,04,20,00,32,13.70
2016,04,20,00,33,13.70
2016,04,20,00,34,13.80
2016,04,20,00,35,13.80
2016,04,20,00,36,13.80
2016,04,20,00,37,13.80
2016,04,20,00,38,13.80
2016,04,20,00,39,13.80
2016,04,20,00,40,13.80
2016,04,20,00,41,13.80
2016,04,20,00,42,13.80
2016,04,20,00,43,13.80
2016,04,20,00,44,13.80
2016,04,20,00,45,13.80
2016,04,20,00,46,13.70
2016,04,20,00,47,13.70
2016,04,20,00,48,13.70
2016,04,20,00,49,13.70
2016,04,20,00,50,13.70
2016,04,20,00,51,13.70
2016,04,20,00,52,13.60
2016,04,20,00,53,13.60
2016,04,20,00,54,13.60
2016,04,20,00,55,13.60
2016,04,20,00,56,13.60
2016,04,20,00,57,13.60
2016,04,20,00,58,13.60
2016,04,20,00,59,13.60
2016,04,20,01,00,13.60
2016,04,20,01,01,13.70
2016,04,20,01,02,13.70
2016,04,20,01,03,13.70
2016,04,20,01,04,13.70
2016,04,20,01,05,13.70
2016,04,20,01,06,13.70
2016,04,20,01,07,13.70
2016,04,20,01,08,13.70
2016,04,20,01,09,13.60
2016,04,20,01,10,13.60
2016,04,20,01,11,13.60
2016,04,20,01,12,13.60
2016,04,20,01,13,13.60
2016,04,20,01,14,13.50
2016,04,20,01,15,13.50
2016,04,20,01,16,13.50
2016,04,20,01,17,13.40
2016,04,20,01,18,13.40
2016,04,20,01,19,13.40
2016,04,20,01,20,13.40
2016,04,20,01,21,13.40
2016,04,20,01,22,13.40
2016,04,20,01,23,13.40
2016,04,20,01,24,13.40
2016,04,20,01,25,13.40
2016,04,20,01,26,13.40
2016,04,20,01,27,13.40
2016,04,20,01,28,13.40
2016,04,20,01,29,13.40
2016,04,20,01,30,13.40
2016,04,20,01,31,13.40
2016,04,20,01,32,13.40
2016,04,20,01,33,13.40
2016,04,20,01,34,13.40
2016,04,20,01,35,13.40
2016,04,20,01,36,13.40
2016,04,20,01,37,13.40
2016,04,20,01,38,13.40
2016,04,20,01,39,13.40
2016,04,20,01,40,13.40
2016,04,20,01,41,13.40
2016,04,20,01,42,13.40
2016,04,20,01,43,13.40
2016,04,20,01,44,13.40
2016,04,20,01,45,13.40
2016,04,20,01,46,13.40
2016,04,20,01,47,13.40
2016,04,20,01,48,13.40
2016,04,20,01,49,13.30
2016,04,20,01,50,13.30
2016,04,20,01,51,13.30
2016,04,20,01,52,13.30
2016,04,20,01,53,13.30
2016,04,20,01,54,13.30
2016,04,20,01,55,13.30
2016,04,20,01,56,13.30
2016,04,20,01,57,13.30
2016,04,20,01,58,13.30
2016,04,20,01,59,13.30
2016,04,20,02,00,13.30
2016,04,20,02,01,13.30
2016,04,20,02,02,13.30
2016,04,20,02,03,13.30
2016,04,20,02,04,13.30
2016,04,20,02,05,13.30
2016,04,20,02,06,13.30
2016,04,20,02,07,13.30
2016,04,20,02,08,13.30
2016,04,20,02,09,13.30
2016,04,20,02,10,13.30
2016,04,20,02,11,13.30
2016,04,20,02,12,13.30
2016,04,20,02,13,13.30
2016,04,20,02,14,13.30
2016,04,20,02,15,13.30
2016,04,20,02,16,13.30
2016,04,20,02,17,13.30
2016,04,20,02,18,13.30
2016,04,20,02,19,13.30
2016,04,20,02,20,13.30
2016,04,20,02,21,13.20
2016,04,20,02,22,13.20
2016,04,20,02,23,13.20
2016,04,20,02,24,13.20
2016,04,20,02,25,13.10
2016,04,20,02,26,13.10
2016,04,20,02,27,13.10
2016,04,20,02,28,13.10
2016,04,20,02,29,13.10
2016,04,20,02,30,13.10
2016,04,20,02,31,13.10
2016,04,20,02,32,13.10
2016,04,20,02,33,13.10
2016,04,20,02,34,13.00
2016,04,20,02,35,13.10
2016,04,20,02,36,13.10
2016,04,20,02,37,13.10
2016,04,20,02,38,13.10
2016,04,20,02,39,13.10
2016,04,20,02,40,13.10
2016,04,20,02,41,13.20
2016,04,20,02,42,13.20
2016,04,20,02,43,13.20
2016,04,20,02,44,13.20
2016,04,20,02,45,13.20
2016,04,20,02,46,13.20
2016,04,20,02,47,13.20
2016,04,20,02,48,13.20
2016,04,20,02,49,13.20
2016,04,20,02,50,13.20
2016,04,20,02,51,13.20
2016,04,20,02,52,13.20
2016,04,20,02,53,13.20
2016,04,20,02,54,13.20
2016,04,20,02,55,13.10
2016,04,20,02,56,13.10
2016,04,20,02,57,13.10
2016,04,20,02,58,13.10
2016,04,20,02,59,13.10
2016,04,20,03,00,13.00
2016,04,20,03,01,13.00
2016,04,20,03,02,13.00
2016,04,20,03,03,12.90
2016,04,20,03,04,12.90
2016,04,20,03,05,12.90
2016,04,20,03,06,12.90
2016,04,20,03,07,12.90
2016,04,20,03,08,12.90
2016,04,20,03,09,12.80
2016,04,20,03,10,12.80
2016,04,20,03,11,12.80
2016,04,20,03,12,12.80
2016,04,20,03,13,12.70
2016,04,20,03,14,12.70
2016,04,20,03,15,12.70
2016,04,20,03,16,12.70
2016,04,20,03,17,12.80
2016,04,20,03,18,12.70
2016,04,20,03,19,12.70
2016,04,20,03,20,12.70
2016,04,20,03,21,12.70
2016,04,20,03,22,12.70
2016,04,20,03,23,12.70
2016,04,20,03,24,12.70
2016,04,20,03,25,12.60
2016,04,20,03,26,12.60
2016,04,20,03,27,12.60
2016,04,20,03,28,12.60
2016,04,20,03,29,12.60
2016,04,20,03,30,12.50
2016,04,20,03,31,12.50
2016,04,20,03,32,12.50
2016,04,20,03,33,12.50
2016,04,20,03,34,12.40
2016,04,20,03,35,12.40
2016,04,20,03,36,12.40
2016,04,20,03,37,12.40
2016,04,20,03,38,12.30
2016,04,20,03,39,12.30
2016,04,20,03,40,12.30
2016,04,20,03,41,12.30
2016,04,20,03,42,12.30
2016,04,20,03,43,12.30
2016,04,20,03,44,12.30
2016,04,20,03,45,12.30
2016,04,20,03,46,12.20
2016,04,20,03,47,12.20
2016,04,20,03,48,12.20
2016,04,20,03,49,12.20
2016,04,20,03,50,12.20
2016,04,20,03,51,12.20
2016,04,20,03,52,12.20
2016,04,20,03,53,12.20
2016,04,20,03,54,12.20
2016,04,20,03,55,12.20
2016,04,20,03,56,12.20
2016,04,20,03,57,12.20
2016,04,20,03,58,12.20
2016,04,20,03,59,12.20
2016,04,20,04,00,12.20
2016,04,20,04,01,12.20
2016,04,20,04,02,12.20
2016,04,20,04,03,12.20
2016,04,20,04,04,12.20
2016,04,20,04,05,12.20
2016,04,20,04,06,12.20
2016,04,20,04,07,12.20
2016,04,20,04,08,12.20
2016,04,20,04,09,12.10
2016,04,20,04,10,12.10
2016,04,20,04,11,12.10
2016,04,20,04,12,12.10
2016,04,20,04,13,12.10
2016,04,20,04,14,12.10
2016,04,20,04,15,12.10
2016,04,20,04,16,12.10
2016,04,20,04,17,12.10
2016,04,20,04,18,12.10
2016,04,20,04,19,12.10
2016,04,20,04,20,12.00
2016,04,20,04,21,12.00
2016,04,20,04,22,12.00
2016,04,20,04,23,12.00
2016,04,20,04,24,12.00
2016,04,20,04,25,11.90
2016,04,20,04,26,11.90
2016,04,20,04,27,11.90
2016,04,20,04,28,11.90
2016,04,20,04,29,11.90
2016,04,20,04,30,11.90
2016,04,20,04,31,11.90
2016,04,20,04,32,11.90
2016,04,20,04,33,11.90
2016,04,20,04,34,11.90
2016,04,20,04,35,11.90
2016,04,20,04,36,11.90
2016,04,20,04,37,11.90
2016,04,20,04,38,11.90
2016,04,20,04,39,11.90
2016,04,20,04,40,11.90
2016,04,20,04,41,11.90
2016,04,20,04,42,11.90
2016,04,20,04,43,11.90
2016,04,20,04,44,11.90
2016,04,20,04,45,11.90
2016,04,20,04,46,11.90
2016,04,20,04,47,12.00
2016,04,20,04,48,12.00
2016,04,20,04,49,12.10
2016,04,20,04,50,12.10
2016,04,20,04,51,12.10
2016,04,20,04,52,12.10
2016,04,20,04,53,12.10
2016,04,20,04,54,12.10
2016,04,20,04,55,12.10
2016,04,20,04,56,12.10
2016,04,20,04,57,12.10
2016,04,20,04,58,12.10
2016,04,20,04,59,12.00
2016,04,20,05,00,12.00
2016,04,20,05,01,12.00
2016,04,20,05,02,12.00
2016,04,20,05,03,12.00
2016,04,20,05,04,12.00
2016,04,20,05,05,12.10
2016,04,20,05,06,12.10
2016,04,20,05,07,12.10
2016,04,20,05,08,12.10
2016,04,20,05,09,12.10
2016,04,20,05,10,12.10
2016,04,20,05,11,12.10
2016,04,20,05,12,12.10
2016,04,20,05,13,12.20
2016,04,20,05,14,12.20
2016,04,20,05,15,12.20
2016,04,20,05,16,12.20
2016,04,20,05,17,12.20
2016,04,20,05,18,12.20
2016,04,20,05,19,12.20
2016,04,20,05,20,12.10
2016,04,20,05,21,12.10
2016,04,20,05,22,12.10
2016,04,20,05,23,12.00
2016,04,20,05,24,12.00
2016,04,20,05,25,12.00
2016,04,20,05,26,11.90
2016,04,20,05,27,11.90
2016,04,20,05,28,11.90
2016,04,20,05,29,11.90
2016,04,20,05,30,11.90
2016,04,20,05,31,11.90
2016,04,20,05,32,11.80
2016,04,20,05,33,11.80
2016,04,20,05,34,11.90
2016,04,20,05,35,11.90
2016,04,20,05,36,11.90
2016,04,20,05,37,11.90
2016,04,20,05,38,11.90
2016,04,20,05,39,11.90
2016,04,20,05,40,11.90
2016,04,20,05,41,11.90
2016,04,20,05,42,11.90
2016,04,20,05,43,12.00
2016,04,20,05,44,12.00
2016,04,20,05,45,12.00
2016,04,20,05,46,12.00
2016,04,20,05,47,12.00
2016,04,20,05,48,12.00
2016,04,20,05,49,12.00
2016,04,20,05,50,12.00
2016,04,20,05,51,11.90
2016,04,20,05,52,11.90
2016,04,20,05,53,11.90
2016,04,20,05,54,11.90
2016,04,20,05,55,11.90
2016,04,20,05,56,11.90
2016,04,20,05,57,11.90
2016,04,20,05,58,11.90
2016,04,20,05,59,11.90
2016,04,20,06,00,11.90
2016,04,20,06,01,11.90
2016,04,20,06,02,11.90
2016,04,20,06,03,11.90
2016,04,20,06,04,11.90
2016,04,20,06,05,11.80
2016,04,20,06,06,11.80
2016,04,20,06,07,11.80
2016,04,20,06,08,11.80
2016,04,20,06,09,11.80
2016,04,20,06,10,11.90
2016,04,20,06,11,11.90
2016,04,20,06,12,11.90
2016,04,20,06,13,11.90
2016,04,20,06,14,11.80
2016,04,20,06,15,11.80
2016,04,20,06,16,11.70
2016,04,20,06,17,11.70
2016,04,20,06,18,11.60
2016,04,20,06,19,11.60
2016,04,20,06,20,11.60
2016,04,20,06,21,11.60
2016,04,20,06,22,11.60
2016,04,20,06,23,11.60
2016,04,20,06,24,11.50
2016,04,20,06,25,11.50
2016,04,20,06,26,11.50
2016,04,20,06,27,11.50
2016,04,20,06,28,11.40
2016,04,20,06,29,11.40
2016,04,20,06,30,11.30
2016,04,20,06,31,11.30
2016,04,20,06,32,11.20
2016,04,20,06,33,11.20
2016,04,20,06,34,11.20
2016,04,20,06,35,11.20
2016,04,20,06,36,11.20
2016,04,20,06,37,11.20
2016,04,20,06,38,11.30
2016,04,20,06,39,11.30
2016,04,20,06,40,11.40
2016,04,20,06,41,11.40
2016,04,20,06,42,11.40
2016,04,20,06,43,11.50
2016,04,20,06,44,11.40
2016,04,20,06,45,11.50
2016,04,20,06,46,11.50
2016,04,20,06,47,11.50
2016,04,20,06,48,11.50
2016,04,20,06,49,11.60
2016,04,20,06,50,11.60
2016,04,20,06,51,11.60
2016,04,20,06,52,11.60
2016,04,20,06,53,11.70
2016,04,20,06,54,11.70
2016,04,20,06,55,11.70
2016,04,20,06,56,11.70
2016,04,20,06,57,11.80
2016,04,20,06,58,11.80
2016,04,20,06,59,11.80
2016,04,20,07,00,11.80
2016,04,20,07,01,11.80
2016,04,20,07,02,11.80
2016,04,20,07,03,11.80
2016,04,20,07,04,11.90
2016,04,20,07,05,11.90
2016,04,20,07,06,12.00
2016,04,20,07,07,12.00
2016,04,20,07,08,12.10
2016,04,20,07,09,12.10
2016,04,20,07,10,12.10
2016,04,20,07,11,12.20
2016,04,20,07,12,12.20
2016,04,20,07,13,12.20
2016,04,20,07,14,12.30
2016,04,20,07,15,12.30
2016,04,20,07,16,12.30
2016,04,20,07,17,12.30
2016,04,20,07,18,12.30
2016,04,20,07,19,12.40
2016,04,20,07,20,12.40
2016,04,20,07,21,12.40
2016,04,20,07,22,12.40
2016,04,20,07,23,12.40
2016,04,20,07,24,12.50
2016,04,20,07,25,12.50
2016,04,20,07,26,12.60
2016,04,20,07,27,12.60
2016,04,20,07,28,12.60
2016,04,20,07,29,12.60
2016,04,20,07,30,12.60
2016,04,20,07,31,12.60
2016,04,20,07,32,12.70
2016,04,20,07,33,12.70
2016,04,20,07,34,12.70
2016,04,20,07,35,12.70
2016,04,20,07,36,12.80
2016,04,20,07,37,12.80
2016,04,20,07,38,12.80
2016,04,20,07,39,12.80
2016,04,20,07,40,12.90
2016,04,20,07,41,12.90
2016,04,20,07,42,12.90
2016,04,20,07,43,13.00
2016,04,20,07,44,13.00
2016,04,20,07,45,13.10
2016,04,20,07,46,13.10
2016,04,20,07,47,13.10
2016,04,20,07,48,13.20
2016,04,20,07,49,13.20
2016,04,20,07,50,13.20
2016,04,20,07,51,13.20
2016,04,20,07,52,13.30
2016,04,20,07,53,13.30
2016,04,20,07,54,13.40
2016,04,20,07,55,13.40
2016,04,20,07,56,13.40
2016,04,20,07,57,13.50
2016,04,20,07,58,13.50
2016,04,20,07,59,13.60
2016,04,20,08,00,13.60
2016,04,20,08,01,13.60
2016,04,20,08,02,13.70
2016,04,20,08,03,13.70
2016,04,20,08,04,13.70
2016,04,20,08,05,13.70
2016,04,20,08,06,13.80
2016,04,20,08,07,13.80
2016,04,20,08,08,13.90
2016,04,20,08,09,13.90
2016,04,20,08,10,14.00
2016,04,20,08,11,14.00
2016,04,20,08,12,14.10
2016,04,20,08,13,14.10
2016,04,20,08,14,14.20
2016,04,20,08,15,14.20
2016,04,20,08,16,14.30
2016,04,20,08,17,14.30
2016,04,20,08,18,14.40
2016,04,20,08,19,14.40
2016,04,20,08,20,14.50
2016,04,20,08,21,14.60
2016,04,20,08,22,14.60
2016,04,20,08,23,14.60
2016,04,20,08,24,14.70
2016,04,20,08,25,14.70
2016,04,20,08,26,14.70
2016,04,20,08,27,14.70
2016,04,20,08,28,14.80
2016,04,20,08,29,14.80
2016,04,20,08,30,14.80
2016,04,20,08,31,14.80
2016,04,20,08,32,14.80
2016,04,20,08,33,14.80
2016,04,20,08,34,14.70
2016,04,20,08,35,14.70
2016,04,20,08,36,14.70
2016,04,20,08,37,14.70
2016,04,20,08,38,14.70
2016,04,20,08,39,14.80
2016,04,20,08,40,14.80
2016,04,20,08,41,14.80
2016,04,20,08,42,14.80
2016,04,20,08,43,14.80
2016,04,20,08,44,14.90
2016,04,20,08,45,14.90
2016,04,20,08,46,14.90
2016,04,20,08,47,14.90
2016,04,20,08,48,15.00
2016,04,20,08,49,15.00
2016,04,20,08,50,15.10
2016,04,20,08,51,15.10
2016,04,20,08,52,15.10
2016,04,20,08,53,15.20
2016,04,20,08,54,15.20
2016,04,20,08,55,15.30
2016,04,20,08,56,15.30
2016,04,20,08,57,15.30
2016,04,20,08,58,15.40
2016,04,20,08,59,15.40
2016,04,20,09,00,15.40
2016,04,20,09,01,15.40
2016,04,20,09,02,15.40
2016,04,20,09,03,15.50
2016,04,20,09,04,15.50
2016,04,20,09,05,15.60
2016,04,20,09,06,15.60
2016,04,20,09,07,15.70
2016,04,20,09,08,15.80
2016,04,20,09,09,15.80
2016,04,20,09,10,15.90
2016,04,20,09,11,15.90
2016,04,20,09,12,16.00
2016,04,20,09,13,16.10
2016,04,20,09,14,16.10
2016,04,20,09,15,16.20
2016,04,20,09,16,16.30
2016,04,20,09,17,16.30
2016,04,20,09,18,16.40
2016,04,20,09,19,16.50
2016,04,20,09,20,16.60
2016,04,20,09,21,16.60
2016,04,20,09,22,16.60
2016,04,20,09,23,16.70
2016,04,20,09,24,16.70
2016,04,20,09,25,16.80
2016,04,20,09,26,16.80
2016,04,20,09,27,16.80
2016,04,20,09,28,16.90
2016,04,20,09,29,17.00
2016,04,20,09,30,17.00
2016,04,20,09,31,17.10
2016,04,20,09,32,17.20
2016,04,20,09,33,17.30
2016,04,20,09,34,17.40
2016,04,20,09,35,17.50
2016,04,20,09,36,17.60
2016,04,20,09,37,17.70
2016,04,20,09,38,17.80
2016,04,20,09,39,17.80
2016,04,20,09,40,17.90
2016,04,20,09,41,18.00
2016,04,20,09,42,18.00
2016,04,20,09,43,18.10
2016,04,20,09,44,18.20
2016,04,20,09,45,18.20
2016,04,20,09,46,18.30
2016,04,20,09,47,18.30
2016,04,20,09,48,18.40
2016,04,20,09,49,18.40
2016,04,20,09,50,18.50
2016,04,20,09,51,18.50
2016,04,20,09,52,18.60
2016,04,20,09,53,18.70
2016,04,20,09,54,18.70
2016,04,20,09,55,18.80
2016,04,20,09,56,18.80
2016,04,20,09,57,18.90
2016,04,20,09,58,18.90
2016,04,20,09,59,19.00
2016,04,20,10,00,19.00
2016,04,20,10,01,19.00
2016,04,20,10,02,19.10
2016,04,20,10,03,19.10
2016,04,20,10,04,19.10
2016,04,20,10,05,19.10
2016,04,20,10,06,19.10
2016,04,20,10,07,19.10
2016,04,20,10,08,19.10
2016,04,20,10,09,19.10
2016,04,20,10,10,19.10
2016,04,20,10,11,19.20
2016,04,20,10,12,19.20
2016,04,20,10,13,19.20
2016,04,20,10,14,19.30
2016,04,20,10,15,19.30
2016,04,20,10,16,19.40
2016,04,20,10,17,19.40
2016,04,20,10,18,19.50
2016,04,20,10,19,19.50
2016,04,20,10,20,19.60
2016,04,20,10,21,19.60
2016,04,20,10,22,19.60
2016,04,20,10,23,19.70
2016,04,20,10,24,19.80
2016,04,20,10,25,19.80
2016,04,20,10,26,19.80
2016,04,20,10,27,19.80
2016,04,20,10,28,19.80
2016,04,20,10,29,19.80
2016,04,20,10,30,19.90
2016,04,20,10,31,20.00
2016,04,20,10,32,20.00
2016,04,20,10,33,20.10
2016,04,20,10,34,20.10
2016,04,20,10,35,20.20
2016,04,20,10,36,20.30
2016,04,20,10,37,20.30
2016,04,20,10,38,20.40
2016,04,20,10,39,20.50
2016,04,20,10,40,20.50
2016,04,20,10,41,20.60
2016,04,20,10,42,20.60
2016,04,20,10,43,20.60
2016,04,20,10,44,20.60
2016,04,20,10,45,20.70
2016,04,20,10,46,20.70
2016,04,20,10,47,20.80
2016,04,20,10,48,20.80
2016,04,20,10,49,20.90
2016,04,20,10,50,20.90
2016,04,20,10,51,21.00
2016,04,20,10,52,21.10
2016,04,20,10,53,21.10
2016,04,20,10,54,21.20
2016,04,20,10,55,21.20
2016,04,20,10,56,21.30
2016,04,20,10,57,21.30
2016,04,20,10,58,21.40
2016,04,20,10,59,21.50
2016,04,20,11,00,21.50
2016,04,20,11,01,21.60
2016,04,20,11,02,21.70
2016,04,20,11,03,21.80
2016,04,20,11,04,21.90
2016,04,20,11,05,22.00
2016,04,20,11,06,22.10
2016,04,20,11,07,22.20
2016,04,20,11,08,22.30
2016,04,20,11,09,22.40
2016,04,20,11,10,22.40
2016,04,20,11,11,22.40
2016,04,20,11,12,22.30
2016,04,20,11,13,22.20
2016,04,20,11,14,22.10
2016,04,20,11,15,22.00
2016,04,20,11,16,22.00
2016,04,20,11,17,22.00
2016,04,20,11,18,22.00
2016,04,20,11,19,21.90
2016,04,20,11,20,21.80
2016,04,20,11,21,21.70
2016,04,20,11,22,21.70
2016,04,20,11,23,21.80
2016,04,20,11,24,21.90
2016,04,20,11,25,21.90
2016,04,20,11,26,22.00
2016,04,20,11,27,22.10
2016,04,20,11,28,22.20
2016,04,20,11,29,22.20
2016,04,20,11,30,22.30
2016,04,20,11,31,22.30
2016,04,20,11,32,22.30
2016,04,20,11,33,22.30
2016,04,20,11,34,22.20
2016,04,20,11,35,22.10
2016,04,20,11,36,22.00
2016,04,20,11,37,22.10
2016,04,20,11,38,22.10
2016,04,20,11,39,22.10
2016,04,20,11,40,22.20
2016,04,20,11,41,22.20
2016,04,20,11,42,22.20
2016,04,20,11,43,22.20
2016,04,20,11,44,22.20
2016,04,20,11,45,22.30
2016,04,20,11,46,22.30
2016,04,20,11,47,22.20
2016,04,20,11,48,22.30
2016,04,20,11,49,22.30
2016,04,20,11,50,22.40
2016,04,20,11,51,22.40
2016,04,20,11,52,22.20
2016,04,20,11,53,22.10
2016,04,20,11,54,22.00
2016,04,20,11,55,21.90
2016,04,20,11,56,21.90
2016,04,20,11,57,21.90
2016,04,20,11,58,21.90
2016,04,20,11,59,21.90
2016,04,20,12,00,22.00
2016,04,20,12,01,22.00
2016,04,20,12,02,22.00
2016,04,20,12,03,22.10
2016,04,20,12,04,22.10
2016,04,20,12,05,22.10
2016,04,20,12,06,22.10
2016,04,20,12,07,22.10
2016,04,20,12,08,22.10
2016,04,20,12,09,22.10
2016,04,20,12,10,22.10
2016,04,20,12,11,22.10
2016,04,20,12,12,22.10
2016,04,20,12,13,22.10
2016,04,20,12,14,22.10
2016,04,20,12,15,22.10
2016,04,20,12,16,22.10
2016,04,20,12,17,22.10
2016,04,20,12,18,22.20
2016,04,20,12,19,22.30
2016,04,20,12,20,22.50
2016,04,20,12,21,22.70
2016,04,20,12,22,22.80
2016,04,20,12,23,23.00
2016,04,20,12,24,23.00
2016,04,20,12,25,22.90
2016,04,20,12,26,22.80
2016,04,20,12,27,22.80
2016,04,20,12,28,22.80
2016,04,20,12,29,23.00
2016,04,20,12,30,23.10
2016,04,20,12,31,23.10
2016,04,20,12,32,23.10
2016,04,20,12,33,23.10
2016,04,20,12,34,23.00
2016,04,20,12,35,23.00
2016,04,20,12,36,23.10
2016,04,20,12,37,23.10
2016,04,20,12,38,23.20
2016,04,20,12,39,23.20
2016,04,20,12,40,23.20
2016,04,20,12,41,23.20
2016,04,20,12,42,23.20
2016,04,20,12,43,23.20
2016,04,20,12,44,23.20
2016,04,20,12,45,23.20
2016,04,20,12,46,23.20
2016,04,20,12,47,23.20
2016,04,20,12,48,23.20
2016,04,20,12,49,23.30
2016,04,20,12,50,23.30
2016,04,20,12,51,23.30
2016,04,20,12,52,23.30
2016,04,20,12,53,23.20
2016,04,20,12,54,23.30
2016,04,20,12,55,23.30
2016,04,20,12,56,23.50
2016,04,20,12,57,23.70
2016,04,20,12,58,23.70
2016,04,20,12,59,23.80
2016,04,20,13,00,23.80
2016,04,20,13,01,23.70
2016,04,20,13,02,23.60
2016,04,20,13,03,23.60
2016,04,20,13,04,23.70
2016,04,20,13,05,23.70
2016,04,20,13,06,23.70
2016,04,20,13,07,23.70
2016,04,20,13,08,23.70
2016,04,20,13,09,23.80
2016,04,20,13,10,23.80
2016,04,20,13,11,23.80
2016,04,20,13,12,23.90
2016,04,20,13,13,23.90
2016,04,20,13,14,23.90
2016,04,20,13,15,23.90
2016,04,20,13,16,23.90
2016,04,20,13,17,23.90
2016,04,20,13,18,24.00
2016,04,20,13,19,24.00
2016,04,20,13,20,23.90
2016,04,20,13,21,23.80
2016,04,20,13,22,23.80
2016,04,20,13,23,23.90
2016,04,20,13,24,23.90
2016,04,20,13,25,24.10
2016,04,20,13,26,24.10
2016,04,20,13,27,24.10
2016,04,20,13,28,24.10
2016,04,20,13,29,24.10
2016,04,20,13,30,24.20
2016,04,20,13,31,24.30
2016,04,20,13,32,24.30
2016,04,20,13,33,24.30
2016,04,20,13,34,24.30
2016,04,20,13,35,24.30
2016,04,20,13,36,24.30
2016,04,20,13,37,24.40
2016,04,20,13,38,24.40
2016,04,20,13,39,24.40
2016,04,20,13,40,24.40
2016,04,20,13,41,24.40
2016,04,20,13,42,24.30
2016,04,20,13,43,24.30
2016,04,20,13,44,24.40
2016,04,20,13,45,24.40
2016,04,20,13,46,24.40
2016,04,20,13,47,24.30
2016,04,20,13,48,24.30
2016,04,20,13,49,24.40
2016,04,20,13,50,24.50
2016,04,20,13,51,24.70
2016,04,20,13,52,24.90
2016,04,20,13,53,25.10
2016,04,20,13,54,25.20
2016,04,20,13,55,25.20
2016,04,20,13,56,25.10
2016,04,20,13,57,25.10
2016,04,20,13,58,25.10
2016,04,20,13,59,25.10
2016,04,20,14,00,25.10
2016,04,20,14,01,24.90
2016,04,20,14,02,24.80
2016,04,20,14,03,24.70
2016,04,20,14,04,24.70
2016,04,20,14,05,24.80
2016,04,20,14,06,24.80
2016,04,20,14,07,24.80
2016,04,20,14,08,24.80
2016,04,20,14,09,24.70
2016,04,20,14,10,24.50
2016,04,20,14,11,24.40
2016,04,20,14,12,24.40
2016,04,20,14,13,24.40
2016,04,20,14,14,24.40
2016,04,20,14,15,24.40
2016,04,20,14,16,24.50
2016,04,20,14,17,24.60
2016,04,20,14,18,24.60
2016,04,20,14,19,24.70
2016,04,20,14,20,24.80
2016,04,20,14,21,24.90
2016,04,20,14,22,24.90
2016,04,20,14,23,24.80
2016,04,20,14,24,24.80
2016,04,20,14,25,24.90
2016,04,20,14,26,25.00
2016,04,20,14,27,25.10
2016,04,20,14,28,25.30
2016,04,20,14,29,25.30
2016,04,20,14,30,25.20
2016,04,20,14,31,25.10
2016,04,20,14,32,25.10
2016,04,20,14,33,25.00
2016,04,20,14,34,24.80
2016,04,20,14,35,24.70
2016,04,20,14,36,24.70
2016,04,20,14,37,24.80
2016,04,20,14,38,24.80
2016,04,20,14,39,24.90
2016,04,20,14,40,25.00
2016,04,20,14,41,25.00
2016,04,20,14,42,25.10
2016,04,20,14,43,25.10
2016,04,20,14,44,25.10
2016,04,20,14,45,25.20
2016,04,20,14,46,25.30
2016,04,20,14,47,25.30
2016,04,20,14,48,25.40
2016,04,20,14,49,25.40
2016,04,20,14,50,25.40
2016,04,20,14,51,25.40
2016,04,20,14,52,25.20
2016,04,20,14,53,25.00
2016,04,20,14,54,24.90
2016,04,20,14,55,24.80
2016,04,20,14,56,24.80
2016,04,20,14,57,24.80
2016,04,20,14,58,24.60
2016,04,20,14,59,24.50
2016,04,20,15,00,24.40
2016,04,20,15,01,24.30
2016,04,20,15,02,24.30
2016,04,20,15,03,24.30
2016,04,20,15,04,24.30
2016,04,20,15,05,24.30
2016,04,20,15,06,24.30
2016,04,20,15,07,24.30
2016,04,20,15,08,24.40
2016,04,20,15,09,24.40
2016,04,20,15,10,24.40
2016,04,20,15,11,24.30
2016,04,20,15,12,24.30
2016,04,20,15,13,24.30
2016,04,20,15,14,24.40
2016,04,20,15,15,24.50
2016,04,20,15,16,24.60
2016,04,20,15,17,24.70
2016,04,20,15,18,24.80
2016,04,20,15,19,24.90
2016,04,20,15,20,25.00
2016,04,20,15,21,25.10
2016,04,20,15,22,25.10
2016,04,20,15,23,25.10
2016,04,20,15,24,25.00
2016,04,20,15,25,25.10
2016,04,20,15,26,25.20
2016,04,20,15,27,25.20
2016,04,20,15,28,25.20
2016,04,20,15,29,25.30
2016,04,20,15,30,25.40
2016,04,20,15,31,25.50
2016,04,20,15,32,25.60
2016,04,20,15,33,25.70
2016,04,20,15,34,25.90
2016,04,20,15,35,26.00
2016,04,20,15,36,26.20
2016,04,20,15,37,26.20
2016,04,20,15,38,26.30
2016,04,20,15,39,26.40
2016,04,20,15,40,26.40
2016,04,20,15,41,26.50
2016,04,20,15,42,26.60
2016,04,20,15,43,26.50
2016,04,20,15,44,26.30
2016,04,20,15,45,26.20
2016,04,20,15,46,26.10
2016,04,20,15,47,26.10
2016,04,20,15,48,26.00
2016,04,20,15,49,26.00
2016,04,20,15,50,26.10
2016,04,20,15,51,26.10
2016,04,20,15,52,26.20
2016,04,20,15,53,26.20
2016,04,20,15,54,26.20
2016,04,20,15,55,26.10
2016,04,20,15,56,26.10
2016,04,20,15,57,26.10
2016,04,20,15,58,26.10
2016,04,20,15,59,26.10
2016,04,20,16,00,26.10
2016,04,20,16,01,26.20
2016,04,20,16,02,26.20
2016,04,20,16,03,26.30
2016,04,20,16,04,26.40
2016,04,20,16,05,26.50
2016,04,20,16,06,26.60
2016,04,20,16,07,26.70
2016,04,20,16,08,26.70
2016,04,20,16,09,26.50
2016,04,20,16,10,26.40
2016,04,20,16,11,26.30
2016,04,20,16,12,26.20
2016,04,20,16,13,26.20
2016,04,20,16,14,26.20
2016,04,20,16,15,26.10
2016,04,20,16,16,26.10
2016,04,20,16,17,26.10
2016,04,20,16,18,26.10
2016,04,20,16,19,26.10
2016,04,20,16,20,26.20
2016,04,20,16,21,26.20
2016,04,20,16,22,26.20
2016,04,20,16,23,26.10
2016,04,20,16,24,26.00
2016,04,20,16,25,25.90
2016,04,20,16,26,25.70
2016,04,20,16,27,25.60
2016,04,20,16,28,25.60
2016,04,20,16,29,25.60
2016,04,20,16,30,25.60
2016,04,20,16,31,25.70
2016,04,20,16,32,25.70
2016,04,20,16,33,25.70
2016,04,20,16,34,25.80
2016,04,20,16,35,25.90
2016,04,20,16,36,26.00
2016,04,20,16,37,26.10
2016,04,20,16,38,26.20
2016,04,20,16,39,26.20
2016,04,20,16,40,26.20
2016,04,20,16,41,26.20
2016,04,20,16,42,26.20
2016,04,20,16,43,26.10
2016,04,20,16,44,26.00
2016,04,20,16,45,26.00
2016,04,20,16,46,26.10
2016,04,20,16,47,26.00
2016,04,20,16,48,26.00
2016,04,20,16,49,26.10
2016,04,20,16,50,26.20
2016,04,20,16,51,26.30
2016,04,20,16,52,26.30
2016,04,20,16,53,26.20
2016,04,20,16,54,26.20
2016,04,20,16,55,26.20
2016,04,20,16,56,26.20
2016,04,20,16,57,26.20
2016,04,20,16,58,26.30
2016,04,20,16,59,26.30
2016,04,20,17,00,26.20
2016,04,20,17,01,26.20
2016,04,20,17,02,26.20
2016,04,20,17,03,26.10
2016,04,20,17,04,26.10
2016,04,20,17,05,26.10
2016,04,20,17,06,26.00
2016,04,20,17,07,26.00
2016,04,20,17,08,26.00
2016,04,20,17,09,26.00
2016,04,20,17,10,26.00
2016,04,20,17,11,26.00
2016,04,20,17,12,26.00
2016,04,20,17,13,25.90
2016,04,20,17,14,26.00
2016,04,20,17,15,25.90
2016,04,20,17,16,25.90
2016,04,20,17,17,25.90
2016,04,20,17,18,25.90
2016,04,20,17,19,26.00